GW3653 Weather Reports


Display with metric or nautical units.
time (UTC)temp
F
wind
direction
speed
MPH
gust
MPH
rain 1hr
in
rain 24hr
in
rain mn
in
humidity
%
barometer
mb
20260904170519 53 0.0 1.0 0.00 0.06 0.00 76 1019.4
20260904165518 52 0.0 1.0 0.00 0.06 0.00 76 1019.4
20260904164518 52 0.0 1.0 0.00 0.06 0.00 76 1019.4
20260904163519 52 0.0 0.0 0.00 0.06 0.00 77 1019.5
20260904162518 52 0.0 0.0 0.00 0.06 0.00 76 1019.5
20260904161518 52 0.0 0.0 0.00 0.06 0.00 76 1019.6
20260904160519 52 0.0 0.0 0.00 0.06 0.00 76 1019.7
20260904155518 52 0.0 0.0 0.00 0.06 0.06 76 1019.8
20260904154518 52 0.0 0.0 0.00 0.06 0.06 76 1019.8
20260904153538 52 0.0 0.0 0.00 0.06 0.06 76 1020.0
20260904152518 52 0.0 0.0 0.00 0.06 0.06 75 1020.1
20260904151518 52 0.0 1.0 0.00 0.06 0.06 75 1020.2
20260904150519 52 0.0 2.0 0.00 0.06 0.06 75 1020.3
20260904145518 52 0.0 1.0 0.00 0.06 0.06 75 1020.3
20260904144518 52 0.0 0.0 0.00 0.06 0.06 75 1020.4
20260904143518 52 0.0 0.0 0.00 0.06 0.06 75 1020.6
20260904142518 52 0.0 0.0 0.00 0.06 0.06 74 1020.6
20260904141518 52 0.0 0.0 0.00 0.06 0.06 74 1020.8
20260904140518 52 0.0 0.0 0.00 0.06 0.06 74 1020.7
20260904135558 52 0.0 0.0 0.00 0.06 0.06 74 1020.7
20260904134518 52 0.0 0.0 0.00 0.06 0.06 73 1020.8
20260904133518 52 0.0 0.0 0.00 0.06 0.06 73 1020.9
20260904132518 52 0.0 0.0 0.00 0.06 0.06 73 1021.0
20260904131518 53 0.0 0.0 0.00 0.06 0.06 73 1020.8
20260904130518 53 0.0 0.0 0.00 0.06 0.06 73 1020.8
20260904125518 53 0.0 0.0 0.00 0.06 0.06 73 1021.0
20260904124518 53 0.0 0.0 0.00 0.06 0.06 73 1020.9
20260904123518 53 0.0 1.0 0.00 0.06 0.06 73 1020.9
20260904122518 53 0.0 1.0 0.00 0.06 0.06 74 1020.7
20260904121518 53 0.0 0.0 0.00 0.06 0.06 74 1020.8
20260904120519 53 0.0 0.0 0.00 0.06 0.06 74 1020.8
20260904115518 53 0.0 1.0 0.00 0.06 0.06 75 1020.8
20260904114518 53 0.0 1.0 0.00 0.06 0.06 75 1020.7
20260904113519 53 0.0 0.0 0.00 0.06 0.06 75 1020.7
20260904112538 53 0.0 2.0 0.00 0.06 0.06 74 1020.7
20260904111518 54 0.0 0.0 0.00 0.06 0.06 73 1020.7
20260904110519 54 0.0 2.0 0.00 0.06 0.06 73 1020.5
20260904105518 54 0.0 0.0 0.00 0.06 0.06 73 1020.3
20260904104638 54 0.0 4.0 0.00 0.06 0.06 73 1020.2
20260904103519 54 0.0 2.0 0.00 0.06 0.06 73 1020.0
20260904102517 54 0.0 1.0 0.00 0.06 0.06 73 1019.7
20260904101518 54 0.0 2.0 0.00 0.06 0.06 73 1019.6
20260904100538 54 0.0 4.0 0.00 0.06 0.06 72 1019.3
20260904095518 54 248 1.0 5.0 0.00 0.06 0.06 71 1019.2
20260904094538 55 270 1.0 5.0 0.00 0.06 0.06 70 1019.0
20260904093519 55 0.0 3.0 0.00 0.06 0.06 70 1018.8
20260904092517 55 0.0 2.0 0.00 0.06 0.06 70 1018.7
20260904091517 55 0.0 3.0 0.00 0.06 0.06 70 1018.6
20260904090518 55 225 2.0 12.0 0.00 0.06 0.06 69 1018.6
20260904085517 55 248 2.0 11.0 0.00 0.06 0.06 69 1018.4
20260904084517 55 225 2.0 8.0 0.00 0.06 0.06 70 1018.3
20260904083518 55 225 1.0 7.0 0.00 0.06 0.06 71 1018.2
20260904082517 55 248 1.0 9.0 0.00 0.06 0.06 71 1018.1
20260904081538 55 225 2.0 10.0 0.00 0.06 0.06 70 1018.1
20260904080517 56 225 3.0 11.0 0.00 0.06 0.06 70 1018.0
20260904075517 56 225 2.0 10.0 0.00 0.06 0.06 70 1017.9
20260904074517 56 225 3.0 12.0 0.00 0.06 0.06 69 1017.8
20260904073518 56 225 2.0 9.0 0.00 0.06 0.06 69 1017.7
20260904072517 56 225 2.0 11.0 0.00 0.06 0.06 70 1017.7
20260904071517 56 225 2.0 10.0 0.00 0.06 0.06 70 1017.5
20260904070519 56 225 2.0 14.0 0.00 0.06 0.06 70 1017.2
20260904065517 56 225 3.0 12.0 0.00 0.06 0.06 69 1017.0
20260904064517 56 225 5.0 15.0 0.00 0.06 0.06 69 1016.9
20260904063538 56 225 3.0 15.0 0.00 0.06 0.06 68 1016.8
20260904062517 57 248 5.0 16.0 0.00 0.06 0.06 69 1016.7
20260904061517 56 248 5.0 18.0 0.00 0.06 0.06 69 1016.5
20260904060518 56 225 3.0 9.0 0.00 0.06 0.06 69 1016.5
20260904055517 56 225 3.0 16.0 0.00 0.06 0.06 70 1016.4
20260904054537 57 248 3.0 13.0 0.00 0.06 0.06 68 1016.3
20260904053518 57 225 7.0 17.0 0.00 0.06 0.06 67 1016.3
20260904052517 57 225 4.0 13.0 0.00 0.06 0.06 67 1016.1
20260904051517 56 248 6.0 17.0 0.00 0.06 0.06 66 1016.1
20260904050519 56 225 4.0 16.0 0.00 0.06 0.06 70 1016.0
20260904045519 56 225 6.0 17.0 0.00 0.06 0.06 70 1016.1
20260904044519 56 225 5.0 15.0 0.00 0.06 0.06 68 1016.0
20260904043539 56 225 8.0 19.0 0.00 0.06 0.06 67 1016.0
20260904042517 57 225 7.0 16.0 0.00 0.06 0.06 64 1016.0
20260904041519 57 248 5.0 19.0 0.00 0.06 0.06 63 1015.9
20260904040521 57 225 7.0 20.0 0.00 0.06 0.06 67 1015.5
20260904035519 57 225 8.0 18.0 0.00 0.06 0.06 65 1015.6
20260904034519 57 225 9.0 19.0 0.00 0.06 0.06 67 1015.5
20260904033539 57 225 7.0 19.0 0.00 0.06 0.06 69 1015.3
20260904032539 57 225 5.0 21.0 0.00 0.06 0.06 70 1015.4
20260904031519 56 225 7.0 24.0 0.00 0.06 0.06 69 1015.1
20260904030519 57 225 6.0 20.0 0.00 0.06 0.06 70 1014.9
20260904025519 57 248 5.0 13.0 0.00 0.06 0.06 67 1014.6
20260904024519 57 225 7.0 20.0 0.00 0.06 0.06 66 1014.6
20260904023520 57 225 6.0 22.0 0.00 0.06 0.06 69 1014.4
20260904022518 57 248 9.0 18.0 0.00 0.06 0.06 68 1014.1
20260904021519 56 225 7.0 21.0 0.00 0.06 0.06 71 1014.2
20260904020519 55 225 6.0 13.0 0.00 0.06 0.06 73 1014.2
20260904015519 54 225 6.0 17.0 0.00 0.06 0.06 76 1014.2
20260904014518 57 225 8.0 21.0 0.00 0.06 0.06 69 1014.0
20260904013538 56 225 8.0 23.0 0.00 0.06 0.06 69 1013.8
20260904012518 56 225 7.0 16.0 0.00 0.06 0.06 68 1013.6
20260904011518 56 225 9.0 26.0 0.00 0.06 0.06 67 1013.3
20260904010520 56 225 6.0 19.0 0.00 0.06 0.06 71 1013.1
20260904005519 54 225 7.0 25.0 0.00 0.06 0.06 74 1013.0
20260904004518 54 225 2.0 19.0 0.00 0.06 0.06 76 1012.8
20260904003538 54 225 7.0 19.0 0.00 0.06 0.06 75 1012.4
20260904002518 54 225 6.0 19.0 0.00 0.06 0.06 74 1012.3
20260904001518 55 225 10.0 21.0 0.00 0.06 0.06 71 1011.6
20260904000519 55 225 9.0 18.0 0.00 0.06 0.06 74 1011.3
20260903235519 54 248 8.0 23.0 0.00 0.06 0.06 78 1011.0
20260903234518 53 225 6.0 20.0 0.00 0.06 0.06 84 1010.9
20260903233518 51 225 11.0 28.0 0.00 0.06 0.06 92 1010.7
20260903232518 49 225 8.0 20.0 0.00 0.06 0.06 92 1010.2
20260903231538 49 248 10.0 31.0 0.02 0.06 0.06 92 1009.7
20260903230520 50 248 7.0 18.0 0.02 0.06 0.06 92 1009.5
20260903225518 51 225 12.0 34.0 0.02 0.06 0.06 93 1008.9
20260903224518 51 225 8.0 25.0 0.02 0.06 0.06 93 1008.4
20260903223518 52 225 6.0 21.0 0.02 0.06 0.06 93 1008.3
20260903222518 51 225 11.0 23.0 0.02 0.06 0.06 93 1008.3
20260903221518 51 248 1.0 9.0 0.01 0.04 0.04 93 1007.9
20260903220518 52 225 2.0 8.0 0.01 0.04 0.04 93 1007.5
20260903215538 52 248 1.0 9.0 0.01 0.04 0.04 93 1007.4
20260903214518 52 248 1.0 8.0 0.02 0.04 0.04 93 1007.4
20260903213518 52 248 1.0 5.0 0.02 0.03 0.03 93 1007.3
20260903212518 52 225 1.0 5.0 0.02 0.03 0.03 93 1007.4
20260903211518 52 225 1.0 7.0 0.02 0.03 0.03 92 1007.1
20260903210518 52 270 1.0 10.0 0.02 0.03 0.03 92 1006.9
20260903205518 52 248 3.0 14.0 0.02 0.03 0.03 92 1006.8
20260903204518 52 248 4.0 14.0 0.01 0.02 0.02 91 1006.8
20260903203518 52 225 3.0 15.0 0.00 0.01 0.01 89 1006.6
20260903202518 55 248 4.0 13.0 0.00 0.01 0.01 82 1006.5
20260903201518 55 225 6.0 18.0 0.00 0.01 0.01 79 1006.3
20260903200518 55 225 4.0 18.0 0.00 0.01 0.01 79 1006.2
20260903195518 55 248 4.0 14.0 0.00 0.01 0.01 79 1006.0
20260903194518 55 248 3.0 13.0 0.00 0.01 0.01 79 1005.7
20260903193518 55 270 3.0 12.0 0.00 0.01 0.01 80 1005.8
20260903192518 55 270 3.0 14.0 0.00 0.01 0.01 81 1005.9
20260903191518 55 225 4.0 20.0 0.00 0.01 0.01 81 1005.9
20260903190538 55 248 4.0 16.0 0.00 0.01 0.01 84 1005.9
20260903185518 55 225 2.0 10.0 0.00 0.01 0.01 86 1006.3
20260903184517 54 248 3.0 10.0 0.00 0.01 0.01 90 1006.2
20260903183518 54 225 4.0 18.0 0.00 0.01 0.01 92 1006.3
20260903182517 53 248 2.0 10.0 0.01 0.01 0.01 91 1006.3
20260903181517 53 270 5.0 13.0 0.01 0.01 0.01 91 1006.4
20260903180518 53 270 4.0 14.0 0.01 0.01 0.01 91 1006.5
20260903175517 53 248 5.0 14.0 0.01 0.01 0.01 91 1006.7
20260903174518 53 270 5.0 15.0 0.01 0.01 0.01 90 1006.6
20260903173537 54 248 7.0 17.0 0.01 0.01 0.01 88 1006.6
20260903172518 57 225 3.0 11.0 0.00 0.00 0.00 80 1007.0
20260903171518 57 248 3.0 12.0 0.00 0.00 0.00 78 1006.6